Terminal Aerodrome Forecast
Issued by NWS

Home | Current Version | Previous Version | Text Only | Print | Product List | Glossary On
Versions: 1 2 3 4 5 6 7 8 9 10 11 12 13 14 15 16 17 18 19 20 21 22 23 24 25 26 27 28 29 30 31 32 33 34 35
000
FTUS43 KDMX 011735
TAFFOD
TAF
KFOD 011735Z 0118/0218 09011KT P6SM VCSH OVC090
     FM012100 10006KT P6SM SCT100 OVC250=

USA.gov is the U.S. government's official web portal to all federal, state and local government web resources and services.